Regional Weather Roundup
Issued by NWS

Home | Current Version | Previous Version | Text Only | Print | Product List | Glossary On
Versions: 1 2 3 4 5 6 7 8 9 10 11 12 13 14 15 16 17 18 19 20 21 22 23 24 25 26 27 28 29 30 31 32 33 34 35 36 37 38 39 40 41 42 43 44 45 46 47 48 49 50
000
ASUS43 KDTX 231201
RWRMI
MICHIGAN HOURLY REGIONAL WEATHER ROUNDUP
NATIONAL WEATHER SERVICE DETROIT/PONTIAC MI
700 AM EST MON JAN 23 2017

NOTE: "FAIR" INDICATES FEW OR NO CLOUDS BELOW 12,000 FEET WITH NO
SIGNIFICANT WEATHER AND/OR OBSTRUCTION TO VISIBILITY.

MIZ047>049-052>055-059>063-066>070-074>076-081>083-231300-
SOUTHEAST LOWER MICHIGAN

CITY           SKY/WX    TMP DP  RH WIND       PRES   REMARKS
ADRIAN         CLOUDY    41  41 100 NE9       29.62R FOG
6HR MIN TEMP:  41; 6HR MAX TEMP:  45;

ALMA           CLOUDY    37  37 100 NW5       29.68S FOG     WCI  34
6HR MIN TEMP:  37; 6HR MAX TEMP:  38;

ANN ARBOR      FOG       41  41 100 N8        29.62S VSB 1
BAD AXE        CLOUDY    37  37 100 E3        29.69S FOG
6HR MIN TEMP:  37; 6HR MAX TEMP:  38;

CARO           FOG       38  38 100 CALM      29.67R VSB 3/4
DETROIT CITY   CLOUDY    40  40 100 NE7       29.65R FOG
6HR MIN TEMP:  40; 6HR MAX TEMP:  42; 6HR PCP: TRACE;

DETROIT        RAIN      42  41  96 NE8       29.64R FOG
6HR MIN TEMP:  42; 6HR MAX TEMP:  44; 6HR PCP:  0.03;

FLINT          CLOUDY    39  39 100 NE5       29.66R FOG
6HR MIN TEMP:  39; 6HR MAX TEMP:  40;

GROSSE ILE     CLOUDY    40  40  99 NE9       29.62S FOG     WCI  34
6HR MIN TEMP:  40; 6HR MAX TEMP:  42;

HILLSDALE      FOG       41  41 100 N10       29.61R VSB 1/2
HOWELL         FOG       38  38  97 N3        29.64R VSB 1/2

CITY           SKY/WX    TMP DP  RH WIND       PRES   REMARKS
JACKSON        CLOUDY    40  39  97 N6        29.64R FOG
6HR MIN TEMP:  40; 6HR MAX TEMP:  42;

LAMBERTVILLE   CLOUDY    42  41  95 NE7       29.62R FOG
6HR MIN TEMP:  42; 6HR MAX TEMP:  43;

LANSING        FOG       39  37  92 N5        29.67R VSB 3/4
6HR MIN TEMP:  39; 6HR MAX TEMP:  41;

LAPEER         CLOUDY    38  38 100 E5        29.66R FOG     WCI  34
6HR MIN TEMP:  38; 6HR MAX TEMP:  41;

MASON          CLOUDY    38  38 100 N3        29.66R FOG
MONROE         CLOUDY    41  41 100 NE9G16    29.62R FOG
6HR MIN TEMP:  41; 6HR MAX TEMP:  42;

MT. CLEMENS    LGT RAIN  39  39 100 N7        29.64R FOG     WCI  34
6HR MIN TEMP:  39; 6HR MAX TEMP:  41; 6HR PCP: TRACE;

PONTIAC        FOG       39  37  92 NE5       29.62S VSB 1/2
6HR MIN TEMP:  39; 6HR MAX TEMP:  43;

PORT HOPE        N/A     36  36 100 E8        29.68R WCI  30
6HR MIN TEMP:  36; 6HR MAX TEMP:  37;

PORT HURON     DRIZZLE   36  36 100 N5        29.67R WCI  32
TRI CITIES     FOG       36  36 100 NE7       29.68R VSB 1/4 WCI  30
6HR MIN TEMP:  36; 6HR MAX TEMP:  37;

MIDLAND        CLOUDY    38  38  97 CALM      29.68R FOG
6HR MIN TEMP:  38; 6HR MAX TEMP:  39;

TROY           FOG       40  39  96 NE8       29.66S VSB 1   WCI  34
SAGINAW HB     FOG       36  34  93 N3        29.68R VSB 1/2
$$
MIZ043>046-050>051-056>058-064>065-071>073-077>080-231300-
SOUTHWEST LOWER MICHIGAN

CITY           SKY/WX    TMP DP  RH WIND       PRES   REMARKS
BATTLE CREEK   CLOUDY    40  40 100 N8        29.66R FOG     WCI  34
6HR MIN TEMP:  40; 6HR MAX TEMP:  41;

BENTON HARBOR  FOG       38  37  97 VRB7      29.69S VSB 3/4 WCI  33
6HR MIN TEMP:  38; 6HR MAX TEMP:  40;

BIG RAPIDS     CLOUDY    38  37  98 NW5       29.68S FOG     WCI  34
6HR MIN TEMP:  35; 6HR MAX TEMP:  38;

COLDWATER      CLOUDY    41  41 100 N5        29.63S FOG
6HR MIN TEMP:  41; 6HR MAX TEMP:  43;

FREMONT        CLOUDY    36  36 100 NW3       29.70S FOG
HOLLAND        CLOUDY    39  37  92 NW5       29.70R
6HR MIN TEMP:  39; 6HR MAX TEMP:  41;

GRAND RAPIDS   DRIZZLE   40  38  93 N7        29.67S FOG
6HR MIN TEMP:  40; 6HR MAX TEMP:  41; 6HR PCP: TRACE;

IONIA          CLOUDY    38  38  99 N3        29.66S FOG
6HR MIN TEMP:  38; 6HR MAX TEMP:  39;

KALAMAZOO      FOG       41  39  93 N10       29.66S VSB 1/2
6HR MIN TEMP:  41; 6HR MAX TEMP:  42;

LUDINGTON      FOG       37  37 100 CALM      29.72R VSB 1/2
6HR MIN TEMP:  36; 6HR MAX TEMP:  37;

MARSHALL       CLOUDY    40  39  99 N3        29.64R FOG
6HR MIN TEMP:  40; 6HR MAX TEMP:  41;

MOUNT PLEASANT FOG       38  38  99 CALM      29.68R VSB 1
6HR MIN TEMP:  37; 6HR MAX TEMP:  38;

MUSKEGON       FOG       37  35  92 NW9       29.71S VSB 1/2 WCI  30
6HR MIN TEMP:  37; 6HR MAX TEMP:  41;

SOUTH HAVEN    CLOUDY    37  37  99 N8        29.69S FOG     WCI  31
$$
MIZ016>042-231300-
NORTHERN LOWER MICHIGAN

CITY           SKY/WX    TMP DP  RH WIND       PRES   REMARKS
ALPENA         CLOUDY    37  35  92 E8        29.73R FOG     WCI  31
6HR MIN TEMP:  37; 6HR MAX TEMP:  38;

BEAVER ISLAND  FOG       35  35 100 E6        29.73R VSB 1   WCI  30
BELLAIRE       FOG       33  33  99 CALM      29.72S VSB 1/2
6HR MIN TEMP:  33; 6HR MAX TEMP:  35;

CADILLAC       FOG       36  35  96 NE3       29.68S VSB 1
CHARLEVOIX     FOG       37  37 100 CALM      29.74S VSB 1/4
FRANKFORT      FOG      N/A N/A N/A CALM      29.71S VSB 1/4
GAYLORD        FOG       37  34  89 NE3       29.69S VSB 1/2
6HR MIN TEMP:  37; 6HR MAX TEMP:  38;

GRAYLING       FOG       37  36  94 CALM      29.69S VSB 1/2
HARBOR SPRINGS FOG       34  34 100 E6        29.72R VSB 1/2 WCI  29
HOUGHTON LAKE  CLOUDY    37  36  96 NE5       29.68S FOG     WCI  33
6HR MIN TEMP:  34; 6HR MAX TEMP:  38;

MANISTEE       FOG       37  37 100 N3        29.71S VSB 1/2
OSCODA         CLOUDY    38  37  97 E9        29.70R FOG     WCI  31
6HR MIN TEMP:  37; 6HR MAX TEMP:  38;

PELLSTON       FOG       36  34  92 CALM      29.73R VSB 1/2
6HR MIN TEMP:  34; 6HR MAX TEMP:  36;

ROGERS CITY    CLOUDY    36  35  96 E9        29.74S FOG     WCI  29
TRAVERSE CITY  FOG       38  37  97 CALM      29.71R VSB 1/8
6HR MIN TEMP:  36; 6HR MAX TEMP:  38;

$$
MIZ007>008-015-231300-
EASTERN UPPER MICHIGAN

CITY           SKY/WX    TMP DP  RH WIND       PRES   REMARKS
KINROSS        MIX PCPN  34  34 100 E12       29.75R FOG     WCI  25
6HR MIN TEMP:  34; 6HR MAX TEMP:  35; 6HR PCP: TRACE;

MACKINAC ISLAN FOG       35  35 100 E10G20    29.74R VSB 1/4 WCI  27
6HR MIN TEMP:  34; 6HR MAX TEMP:  35;

NEWBERRY       FOG       34  33  97 E6        29.73S VSB 3/4 WCI  29
6HR MIN TEMP:  34; 6HR MAX TEMP:  34;

S. S. MARIE    CLOUDY    37  35  92 E7        29.76R FOG     WCI  32
6HR MIN TEMP:  36; 6HR MAX TEMP:  38; 6HR PCP:  0.01;

MUNISING         N/A     33  33 100 CALM      29.74R
6HR MIN TEMP:  33; 6HR MAX TEMP:  34;

$$
MIZ004>006-011>014-085-231300-
CENTRAL UPPER MICHIGAN

CITY           SKY/WX    TMP DP  RH WIND       PRES   REMARKS
MANISTIQUE     FOG       34  33  97 N3        29.74R VSB 1/2
6HR MIN TEMP:  33; 6HR MAX TEMP:  35;

ESCANABA       CLOUDY    36  35  96 CALM      29.74R
6HR MIN TEMP:  35; 6HR MAX TEMP:  36;

SAWYER-GWINN   FOG       34  34 100 N5        29.72R VSB 3/4 WCI  30
$$
MIZ001>003-009>011-084-231300-
WESTERN UPPER MICHIGAN

CITY           SKY/WX    TMP DP  RH WIND       PRES   REMARKS
IRON MOUNTAIN  CLOUDY    34  31  88 NW5       29.72R WCI  30
6HR MIN TEMP:  34; 6HR MAX TEMP:  36;

HOUGHTON       FOG       34  32  92 W9        29.72S VSB 1/2 WCI  27
6HR MIN TEMP:  34; 6HR MAX TEMP:  34;

COPPER HARBOR    N/A     36  35  96 N6        29.73R WCI  31
6HR MIN TEMP:  35; 6HR MAX TEMP:  37;

IRONWOOD       CLOUDY    34  33  96 SW3       29.73F FOG
6HR MIN TEMP:  33; 6HR MAX TEMP:  34; 6HR PCP: TRACE;

$$

ABBREVIATIONS USED IN REMARKS
   TC - TEMPERATURE IN CELSIUS
  WCI - WIND CHILL INDEX
   HX - HEAT INDEX
  VSB - VISIBILITY




USA.gov is the U.S. government's official web portal to all federal, state and local government web resources and services.